Location: Gleizolles
(44.4833°N, 6.7667°E)
Time: 04:09:02
(UTC+00:00)

N. Korean satellite - Pass Details

Date: 15 December 2021
Orbit: 447 x 491 km, 97.3° (Epoch: 23 January)

Event Time Altitude Azimuth Distance (km) Brightness Sun altitude
Exits shadow 04:22:35 19° 143° (SE) 1,159 8.9 -27.5°
Drops below altitude 10° 04:23:51 10° 158° (SSE) 1,587 9.5 -27.3°
Sets 04:26:04 0° 170° (S) 2,461 10.4 -26.9°
